Location: Bavegemberg
(50.9500°N, 3.8833°E)
Time: 02:11:09
(UTC+00:00)

Cosmos 1814 Rocket - Pass Details

Date: 23 May 2024
Orbit: 743 x 785 km, 74.1° (Epoch: 16 June)

Event Time Altitude Azimuth Distance (km) Brightness Sun altitude
Rises 02:33:55 0° 331° (NNW) 3,221 7.5 -9.0°
Reaches altitude 10° 02:36:21 10° 325° (NW) 2,298 6.7 -8.7°
Maximum altitude 02:41:16 44° 255° (WSW) 1,056 4.4 -8.2°
Drops below altitude 10° 02:46:13 10° 184° (S) 2,308 6.0 -7.7°
Sets 02:48:40 0° 178° (S) 3,237 6.8 -7.4°
